| time (UTC) | temp C | wind direction | speed KPH | gust KPH | rain 1hr cm | rain 24hr cm | rain mn cm | humidity % | barometer mb |
| 20260502221542 | 10 | 349 | 4.8 | 8.0 | 0.00 | 0.66 | 0.66 | 98 | 1011.1 |
| 20260502220052 | 10 | 350 | 6.4 | 9.7 | 0.00 | 0.66 | 0.66 | 98 | 1010.8 |
| 20260502214537 | 10 | 355 | 6.4 | 9.7 | 0.00 | 0.66 | 0.66 | 98 | 1010.9 |
| 20260502213045 | 10 | 360 | 8.0 | 12.9 | 0.00 | 0.66 | 0.66 | 98 | 1010.6 |
| 20260502211544 | 10 | 360 | 8.0 | 12.9 | 0.00 | 0.66 | 0.66 | 98 | 1010.6 |
| 20260502210043 | 10 | 350 | 8.0 | 11.3 | 0.00 | 0.66 | 0.66 | 98 | 1010.7 |
| 20260502204540 | 10 | 355 | 4.8 | 8.0 | 0.00 | 0.66 | 0.66 | 97 | 1010.9 |
| 20260502203049 | 10 | 336 | 4.8 | 8.0 | 0.00 | 0.64 | 0.64 | 97 | 1011.0 |
| 20260502201541 | 10 | 336 | 4.8 | 8.0 | 0.00 | 0.64 | 0.64 | 97 | 1011.0 |
| 20260502200045 | 10 | 323 | 3.2 | 6.4 | 0.03 | 0.64 | 0.64 | 97 | 1011.0 |
| 20260502194549 | 10 | 323 | 3.2 | 8.0 | 0.05 | 0.64 | 0.64 | 97 | 1011.0 |
| 20260502193041 | 11 | 322 | 3.2 | 6.4 | 0.08 | 0.64 | 0.64 | 97 | 1011.1 |
| 20260502191542 | 11 | 321 | 4.8 | 9.7 | 0.08 | 0.64 | 0.64 | 97 | 1011.2 |
| 20260502190039 | 11 | 350 | 4.8 | 8.0 | 0.10 | 0.61 | 0.61 | 97 | 1011.4 |
| 20260502184540 | 11 | 33 | 3.2 | 6.4 | 0.13 | 0.58 | 0.58 | 96 | 1011.4 |
| 20260502183053 | 11 | 33 | 1.6 | 6.4 | 0.13 | 0.56 | 0.56 | 96 | 1011.6 |
| 20260502181544 | 11 | 86 | 3.2 | 4.8 | 0.15 | 0.53 | 0.53 | 96 | 1011.6 |
| 20260502163102 | 11 | 164 | 3.2 | 9.7 | 0.18 | 0.23 | 0.23 | 93 | 1012.6 |
| 20260502161551 | 11 | 164 | 4.8 | 8.0 | 0.18 | 0.18 | 0.18 | 92 | 1012.7 |
| 20260502151543 | 12 | 0 | 0.0 | 1.6 | 0.00 | 0.00 | 0.00 | 88 | 1013.2 |
| 20260502123050 | 13 | 118 | 3.2 | 12.9 | 0.00 | 0.00 | 0.00 | 83 | 1014.6 |
| 20260502121546 | 13 | 117 | 8.0 | 14.5 | 0.00 | 0.00 | 0.00 | 83 | 1015.0 |
| 20260502114545 | 13 | 94 | 4.8 | 16.1 | 0.00 | 0.00 | 0.00 | 84 | 1015.3 |
| 20260502113048 | 12 | 143 | 9.7 | 19.3 | 0.00 | 0.00 | 0.00 | 87 | 1015.6 |
| 20260502111548 | 13 | 140 | 14.5 | 20.9 | 0.00 | 0.00 | 0.00 | 88 | 1015.7 |
| 20260502110044 | 12 | 132 | 12.9 | 19.3 | 0.00 | 0.00 | 0.00 | 89 | 1016.1 |
| 20260502104542 | 13 | 130 | 16.1 | 20.9 | 0.00 | 0.00 | 0.00 | 84 | 1016.3 |
| 20260502103039 | 12 | 137 | 11.3 | 20.9 | 0.00 | 0.00 | 0.00 | 89 | 1016.5 |
| 20260502101538 | 12 | 134 | 11.3 | 20.9 | 0.00 | 0.00 | 0.00 | 88 | 1016.3 |
| 20260502070052 | 10 | 127 | 8.0 | 17.7 | 0.00 | 0.00 | 0.00 | 97 | 1017.0 |
| 20260502064549 | 10 | 136 | 11.3 | 14.5 | 0.00 | 0.00 | 0.00 | 97 | 1017.1 |
| 20260502063044 | 10 | 143 | 8.0 | 12.9 | 0.00 | 0.00 | 0.00 | 97 | 1017.2 |
| 20260502061538 | 10 | 135 | 8.0 | 12.9 | 0.00 | 0.00 | 0.00 | 97 | 1017.2 |
| 20260502060038 | 10 | 154 | 4.8 | 11.3 | 0.00 | 0.00 | 0.00 | 97 | 1017.4 |
| 20260502054539 | 10 | 152 | 3.2 | 12.9 | 0.00 | 0.00 | 0.00 | 97 | 1017.5 |
| 20260502053037 | 10 | 158 | 9.7 | 17.7 | 0.00 | 0.00 | 0.00 | 97 | 1017.5 |
| 20260502051544 | 10 | 96 | 3.2 | 9.7 | 0.00 | 0.00 | 0.00 | 97 | 1017.5 |
| 20260502050043 | 10 | 82 | 1.6 | 6.4 | 0.00 | 0.00 | 0.00 | 97 | 1017.4 |
| 20260502044547 | 10 | 80 | 1.6 | 6.4 | 0.00 | 0.00 | 0.00 | 97 | 1017.4 |
| 20260502043044 | 10 | 180 | 1.6 | 6.4 | 0.00 | 0.00 | 0.00 | 97 | 1017.4 |
| 20260502041545 | 10 | 180 | 1.6 | 6.4 | 0.00 | 0.00 | 0.00 | 97 | 1017.4 |
| 20260502040037 | 10 | 180 | 0.0 | 3.2 | 0.00 | 0.00 | 0.00 | 97 | 1017.4 |
| 20260502034544 | 9 | 180 | 0.0 | 3.2 | 0.00 | 0.00 | 0.00 | 97 | 1017.6 |
| 20260502033045 | 10 | 0 | 0.0 | 3.2 | 0.00 | 0.00 | 0.00 | 97 | 1017.7 |
| 20260502031542 | 10 | 0 | 0.0 | 1.6 | 0.00 | 0.00 | 0.00 | 97 | 1017.9 |
| 20260502030041 | 10 | 0 | 1.6 | 6.4 | 0.00 | 0.00 | 0.00 | 97 | 1018.1 |
| 20260502024542 | 10 | 180 | 3.2 | 6.4 | 0.00 | 0.00 | 0.00 | 97 | 1018.2 |
| 20260502023041 | 10 | 180 | 1.6 | 6.4 | 0.00 | 0.00 | 0.00 | 96 | 1018.3 |
| 20260502021540 | 10 | 180 | 0.0 | 3.2 | 0.00 | 0.00 | 0.00 | 96 | 1018.4 |
| 20260502020043 | 10 | 0 | 1.6 | 4.8 | 0.00 | 0.00 | 0.00 | 96 | 1018.5 |
| 20260502014551 | 10 | 180 | 1.6 | 3.2 | 0.00 | 0.00 | 0.00 | 96 | 1018.8 |
| 20260502013044 | 10 | 0 | 0.0 | 3.2 | 0.00 | 0.00 | 0.00 | 97 | 1019.0 |
| 20260502011545 | 10 | 180 | 4.8 | 8.0 | 0.00 | 0.00 | 0.00 | 97 | 1019.1 |
| 20260502010042 | 10 | 294 | 0.0 | 4.8 | 0.00 | 0.00 | 0.00 | 96 | 1019.1 |
| 20260502004539 | 9 | 294 | 0.0 | 3.2 | 0.00 | 0.00 | 0.00 | 96 | 1019.2 |
| 20260502003038 | 9 | 0 | 0.0 | 3.2 | 0.00 | 0.00 | 0.00 | 96 | 1019.3 |
| 20260502001537 | 10 | 294 | 0.0 | 3.2 | 0.00 | 0.00 | 0.00 | 96 | 1019.2 |
| 20260502000054 | 9 | 294 | 1.6 | 3.2 | 0.00 | 0.00 | 0.00 | 96 | 1019.4 |
| 20260501234543 | 8 | 0 | 1.6 | 3.2 | 0.00 | 0.00 | 0.00 | 96 | 1019.6 |
| 20260501233041 | 8 | 294 | 1.6 | 4.8 | 0.00 | 0.00 | 0.00 | 95 | 1019.6 |
| 20260501231547 | 9 | 279 | 3.2 | 4.8 | 0.00 | 0.00 | 0.00 | 94 | 1019.7 |
| 20260501230045 | 10 | 0 | 0.0 | 3.2 | 0.00 | 0.00 | 0.00 | 95 | 1019.8 |
| 20260501224537 | 10 | 248 | 0.0 | 3.2 | 0.00 | 0.00 | 0.00 | 95 | 1019.9 |
| 20260501223044 | 10 | 0 | 0.0 | 3.2 | 0.00 | 0.00 | 0.00 | 95 | 1019.9 |